User: anonymous   Login
Location: Muenchen
(48.1800°N, 11.5800°E)
Time: 17:35:14
(UTC+02:00)
Language:

Cosmos 2233 Rocket - Orbit

View from above orbital plane
View from above orbital plane
View from above satellite
View from above satellite

Ground track
Ground track

The orbit data is extracted from the following two-line orbital elements,

1 22488U 93008B   18115.72121564  .00000028  00000-0  12876-4 0  9996
2 22488  82.9457 205.8451 0026709  70.9510  81.7992 13.77722679267295
Epoch (UTC): 25 April 2018 17:18:33
Eccentricity: 0.0026709
inclination: 82.9457°
perigee height: 952 km
apogee height: 991 km
right ascension of ascending node: 205.8451°
argument of perigee: 70.9510°
revolutions per day: 13.77722679
mean anomaly at epoch: 81.7992°
orbit number at epoch: 26729

The dashed part of the orbit path shows where the satellite is in the earth's shadow,  

DLR